Location: Grange Rosano
(44.4500°N, 6.9667°E)
Time: 21:20:48
(UTC+00:00)

Cosmos 1892 Rocket - Pass Details

Date: 26 May 2022
Orbit: 605 x 633 km, 82.5° (Epoch: 01 July)

Event Time Altitude Azimuth Distance (km) Brightness Sun altitude
Exits shadow 03:04:49 - 199° (SSW) 2,303 6.0 -8.1°
Reaches altitude 10° 03:05:35 10° 201° (SSW) 2,003 5.6 -7.9°
Maximum altitude 03:09:58 58° 281° (W) 739 3.8 -7.3°
Drops below altitude 10° 03:14:24 10° 1° (N) 2,027 6.8 -6.7°
Sets 03:16:42 0° 5° (N) 2,941 7.8 -6.4°
